Tracking 27188 objects as of 1-Apr-2023
HD Live streaming from Space Station
objects crossing your sky now

STARLINK-5400

Track STARLINK-5400 now!
10-day predictions
STARLINK-5400 is classified as:


NORAD ID: 54861
Int'l Code: 2022-177AT
Perigee: 565.2 km
Apogee: 567.1 km
Inclination: 43.0 °
Period: 95.8 minutes
Semi major axis: 6937 km
RCS: Unknown
Launch date: December 28, 2022
Source: United States (US)
Launch site: AIR FORCE EASTERN TEST RANGE (AFETR)
Your satellite tracking list
Your tracking list is empty




NASA's NSSDC Master Catalog

Two Line Element Set (TLE):
1 54861U 22177AT  23090.73349853  .00000325  00000-0  39097-4 0  9991
2 54861  43.0025 195.9598 0001381 282.5464  77.5224 15.02545380 14577
Source of the keplerian elements: AFSPC